User: anonymous   Login
Location: Unspecified
(0.0000°N, 0.0000°E)
Time: 07:47:00
(UTC+00:00)
Language:

S-56A Canister/Altair - Orbit

View from above orbital plane
View from above orbital plane
View from above satellite
View from above satellite

Ground track
Ground track

The orbit data is extracted from the following two-line orbital elements,

1    82U 61004B   16207.83458425 -.00000020 +00000-0 +36172-4 0  9992
2    82 038.8534 064.6162 1166120 059.1758 311.8479 12.25768225633218
Epoch (UTC): 25 July 2016 20:01:48
Eccentricity: 0.1166120
inclination: 38.8534°
perigee height: 641 km
apogee height: 2494 km
right ascension of ascending node: 64.6162°
argument of perigee: 59.1758°
revolutions per day: 12.25768225
mean anomaly at epoch: 311.8479°
orbit number at epoch: 63321

The dashed part of the orbit path shows where the satellite is in the earth's shadow,  

DLR